Messwerte Nuiqsut

Temperatur

Temperatur
°C
1575856800 17.00 17.00 -14
1575860400 18.00 18.00 -14
1575864000 19.00 19.00
1575867600 20.00 20.00 -14
1575871200 21.00 21.00 -15
1575874800 22.00 22.00 -15
1575878400 23.00 23.00 -16
1575882000 0.00 0.00 -15
1575885600 1.00 1.00 -14
1575889200 2.00 2.00 -13
1575892800 3.00 3.00 -12
1575896400 4.00 4.00 -10
1575900000 5.00 5.00 -10
1575903600 6.00 6.00
1575907200 7.00 7.00 -11
1575910800 8.00 8.00 -9
1575914400 9.00 9.00 -9
1575918000 10.00 10.00 -11
1575921600 11.00 11.00 -10
1575925200 12.00 12.00 -11
1575928800 13.00 13.00 -11
1575932400 14.00 14.00 -9
1575936000 15.00 15.00 -9
1575939600 16.00 16.00 -10

Aktuellste Messwerte

Wettercharakter
Wetter: Nebel
Temperatur
-10 °C
Feuchtigkeit
85 %
Wind
40 km/hWindrichtung: Nordost
Böen
55 km/h
Luftdruck
1007 hPa
Messzeit: 9. Dezember 2019, 17.00Datenquelle: METAR

Weitere Messstationen in der Nähe

Messstation Temperatur Entfernung
Deadhorse - 14 km
Kuparuk -10 °C 55 km
Deadhorse -9 °C 96 km
Anaktuvuk Pass -13 °C 233 km
Atqasuk -11 °C 242 km
Barrow -11 °C 242 km
Barter Island -10 °C 278 km

Wind

Windrichtung Böen Mittelwind
° km/h km/h
1575856800 17.00 16.00 - 17.00 70° 15
1575860400 18.00 17.00 - 18.00 80° 15
1575864000 19.00 18.00 - 19.00
1575867600 20.00 19.00 - 20.00 160° 10
1575871200 21.00 20.00 - 21.00 190° 20
1575874800 22.00 21.00 - 22.00 190° 10
1575878400 23.00 22.00 - 23.00 160° 10
1575882000 0.00 23.00 - 0.00 70° 10
1575885600 1.00 0.00 - 1.00 90° 15
1575889200 2.00 1.00 - 2.00 80° 20
1575892800 3.00 2.00 - 3.00 90° 20
1575896400 4.00 3.00 - 4.00 100° 20
1575900000 5.00 4.00 - 5.00 90° 15
1575903600 6.00 5.00 - 6.00
1575907200 7.00 6.00 - 7.00 90° 30
1575910800 8.00 7.00 - 8.00 90° 25
1575914400 9.00 8.00 - 9.00 80° 30
1575918000 10.00 9.00 - 10.00 90° 30
1575921600 11.00 10.00 - 11.00 80° 35
1575925200 12.00 11.00 - 12.00 70° 30
1575928800 13.00 12.00 - 13.00 60° 30
1575932400 14.00 13.00 - 14.00 60° 30
1575936000 15.00 14.00 - 15.00 60° 45
1575939600 16.00 15.00 - 16.00 60° 50 40

Ihre Wetterstation

Fehlt Ihre Wetterstation auf unserem Portal?

Schreiben Sie an network@meteonews.ch